Springfield, CO

4:30 PM MDT on May 27, 2017 (GMT -0600)
Springfield

Weather History for KSPD - March, 2012

Change the Weather History Date:

Tuesday, March 27, 2012

  Actual Average Record
Temperature  
Mean Temperature 55 °F -  
Max Temperature 71 °F 61 °F 78 °F (2002)
Min Temperature 39 °F 31 °F -38 °F (2001)
Degree Days  
Heating Degree Days 10 19  
Month to date heating degree days 409 613  
Since 1 July heating degree days 4360 4619  
Cooling Degree Days 0 0  
Month to date cooling degree days 3 0  
Year to date cooling degree days 3 0  
Growing Degree Days 6 (Base 50)    
Moisture  
Dew Point 31 °F    
Average Humidity 50    
Maximum Humidity 80    
Minimum Humidity 19    
Precipitation  
Precipitation 0.00 in 0.04 in 0.40 in (2009)
Month to date precipitation 0.19 0.94  
Year to date precipitation 0.46 1.75  
Sea Level Pressure  
Sea Level Pressure 29.83 in    
Wind  
Wind Speed 12 mph (ESE)    
Max Wind Speed 26 mph    
Max Gust Speed 35 mph    
T = Trace of Precipitation, MM = Missing Value Source: NWS Daily Summary

Daily Weather History Graph

Daily Weather History Graph

Search for Another Location

Airport or City:

Trip Planner

Search our weather history database for the weather conditions in past years. The results will help you decide how hot, cold, wet, or windy it might be!

Date:

Astronomy

Mar. 27, 2012 Rise Set
Actual Time 6:42 AM MDT 7:09 PM MDT
Civil Twilight 6:16 AM MDT 7:35 PM MDT
Nautical Twilight 5:45 AM MDT 8:06 PM MDT
Astronomical Twilight 5:14 AM MDT 8:37 PM MDT
Moon 9:21 AM MDT No Moon Set
Length of Visible Light 13h 18m
Length of Day
12h 26m
Waxing Crescent, 22% of the Moon is Illuminated
Mar 27
Waxing Crescent
Mar 30
First Quarter
Apr 6
Full
Apr 13
Last Quarter
Apr 21
New

Hourly Weather History & Observations

Time (MDT) Temp. Windchill Dew Point Humidity Pressure Visibility Wind Dir Wind Speed Gust Speed Precip Events Conditions
12:56 AM 54.0 °F - 44.1 °F 69% 29.69 in - SSW 12.7 mph - N/A   Unknown
1:56 AM 46.9 °F - 37.0 °F 68% 29.70 in - SW 6.9 mph - N/A   Unknown
2:56 AM 43.0 °F 41.3 °F 32.0 °F 65% 29.70 in - Variable 3.5 mph - N/A   Unknown
3:56 AM 44.1 °F 38.6 °F 25.0 °F 47% 29.70 in - NW 10.4 mph - N/A   Unknown
4:56 AM 41.0 °F 34.3 °F 27.0 °F 57% 29.74 in - South 11.5 mph - N/A   Unknown
5:56 AM 45.0 °F 41.2 °F 24.1 °F 44% 29.77 in - NW 6.9 mph - N/A   Unknown
6:56 AM 42.1 °F 35.7 °F 25.0 °F 51% 29.81 in - NW 11.5 mph - N/A   Unknown
7:56 AM 51.1 °F - 26.1 °F 38% 29.84 in - NE 19.6 mph 25.3 mph N/A   Unknown
8:56 AM 55.9 °F - 23.0 °F 28% 29.87 in - ENE 21.9 mph 29.9 mph N/A   Unknown
9:56 AM 61.0 °F - 21.9 °F 22% 29.89 in - ENE 20.7 mph 26.5 mph N/A   Unknown
10:56 AM 63.0 °F - 24.1 °F 23% 29.90 in - East 21.9 mph 28.8 mph N/A   Unknown
11:56 AM 64.9 °F - 24.1 °F 21% 29.89 in - East 17.3 mph 25.3 mph N/A   Unknown
12:56 PM 68.0 °F - 28.0 °F 22% 29.88 in - SE 15.0 mph - N/A   Unknown
1:56 PM 69.1 °F - 26.1 °F 20% 29.89 in - East 13.8 mph - N/A   Unknown
2:56 PM 71.1 °F - 27.0 °F 19% 29.88 in - East 12.7 mph 18.4 mph N/A   Unknown
3:56 PM 71.1 °F - 28.0 °F 20% 29.86 in - SE 17.3 mph 23.0 mph N/A   Unknown
4:56 PM 70.0 °F - 28.0 °F 21% 29.86 in - ESE 11.5 mph - N/A   Unknown
5:56 PM 68.0 °F - 33.1 °F 27% 29.85 in - ESE 15.0 mph - N/A   Unknown
6:56 PM 63.0 °F - 37.9 °F 40% 29.86 in - ESE 11.5 mph - N/A   Unknown
7:56 PM 55.9 °F - 39.9 °F 55% 29.86 in - ESE 8.1 mph - N/A   Unknown
8:56 PM 54.0 °F - 39.9 °F 59% 29.87 in - East 9.2 mph - N/A   Unknown
9:56 PM 53.1 °F - 43.0 °F 69% 29.87 in - ESE 10.4 mph - N/A   Unknown
10:56 PM 51.1 °F - 44.1 °F 77% 29.87 in - ESE 9.2 mph - N/A   Unknown
11:56 PM 48.9 °F - 42.1 °F 77% 29.88 in - East 3.5 mph - N/A   Unknown